This demonstration page uses our WeatherBlox Daily Observations layout. Learn more.

Left ArrowRight Arrow

44.8408, -93.29828

Hourly Observations for September 18, 2022

Temp ( °F °C ) Dew Point ( °F °C ) Humidity (%) Winds ( mph kmh ) Pressure ( in mb ) Visibility ( mi km ) Precip ( " mm )
12:53 am 00:53 Mostly Cloudy 73 22.8 63 17.2 71 71 SW 10 17 29.78 1009 10 16 0.00 0.00
1:53 am 01:53 Partly Cloudy 72 22.2 63 17.2 73 73 SW 13 20 29.78 1009 10 16 0.00 0.00
2:53 am 02:53 Mostly Clear 70 21.1 64 17.8 81 81 SW 13 20 29.79 1009 10 16 0.00 0.00
3:53 am 03:53 Clear 68 20 63 17.2 84 84 WSW 10 17 29.80 1009 10 16 0.00 0.00
4:53 am 04:53 Mostly Clear 66 18.9 61 16.1 84 84 WSW 8 13 29.80 1009 10 16 0.00 0.00
5:21 am 05:21 Mostly Cloudy 65 18.3 61 16.1 87 87 WSW 12 19 29.81 1010 10 16 0.00 0.00
5:34 am 05:34 Cloudy 65 18.3 61 16.1 87 87 WSW 9 15 29.81 1010 10 16 0.00 0.00
5:53 am 05:53 Cloudy 65 18.3 61 16.1 87 87 W 10 17 29.82 1010 10 16 0.00 0.00
6:53 am 06:53 Cloudy 64 17.8 60 15.6 87 87 W 9 15 29.84 1010 10 16 0.00 0.00
7:27 am 07:27 Cloudy 64 17.8 60 15.6 87 87 WNW 13 20 29.85 1011 10 16 0.00 0.00
7:53 am 07:53 Cloudy 64 17.8 60 15.6 87 87 WNW 13 20 29.86 1011 10 16 0.00 0.00
8:08 am 08:08 Cloudy 64 17.8 60 15.6 87 87 WNW 10 17 29.86 1011 10 16 0.00 0.00
8:53 am 08:53 Cloudy 64 17.8 60 15.6 87 87 WNW 8 13 29.88 1012 10 16 0.00 0.00
9:06 am 09:06 Cloudy 65 18.3 60 15.6 84 84 WNW 9 15 29.88 1012 10 16 0.00 0.00
9:53 am 09:53 Cloudy 65 18.3 60 15.6 84 84 WNW 7 11 29.90 1013 10 16 0.00 0.00
10:53 am 10:53 Cloudy 66 18.9 59 15 78 78 WNW 8 13 29.91 1013 10 16 0.00 0.00
11:53 am 11:53 Cloudy 67 19.4 60 15.6 79 79 W 9 15 29.94 1014 10 16 0.00 0.00
12:15 pm 12:15 Cloudy 67 19.4 59 15 76 76 NW 10 17 29.92 1013 10 16 0.00 0.00
12:53 pm 12:53 Cloudy 66 18.9 59 15 78 78 NNW 5 7 29.93 1014 10 16 0.00 0.00
1:19 pm 13:19 Cloudy 67 19.4 59 15 76 76 NNW 6 9 29.91 1013 10 16 0.00 0.00
1:30 pm 13:30 Cloudy 67 19.4 59 15 76 76 NW 7 11 29.91 1013 10 16 0.00 0.00
1:53 pm 13:53 Cloudy 69 20.6 58 14.4 68 68 W 8 13 29.91 1013 10 16 0.00 0.00
2:53 pm 14:53 Cloudy 68 20 58 14.4 70 70 NW 7 11 29.91 1013 10 16 0.00 0.00
3:09 pm 15:09 Cloudy 69 20.6 58 14.4 68 68 NNW 8 13 29.88 1012 10 16 0.00 0.00
3:53 pm 15:53 Cloudy 69 20.6 57 13.9 65 65 WNW 7 11 29.92 1013 10 16 0.00 0.00
4:53 pm 16:53 Cloudy 69 20.6 57 13.9 65 65 W 3 6 29.92 1013 10 16 0.00 0.00
5:53 pm 17:53 Mostly Cloudy 69 20.6 57 13.9 65 65 WSW 7 11 29.93 1013 10 16 0.00 0.00
6:53 pm 18:53 Partly Cloudy 68 20 58 14.4 70 70 WSW 6 9 29.94 1014 10 16 0.00 0.00
7:53 pm 19:53 Mostly Clear 66 18.9 58 14.4 75 75 WSW 5 7 29.95 1014 10 16 0.00 0.00
8:53 pm 20:53 Mostly Clear 65 18.3 58 14.4 78 78 WSW 5 7 29.96 1015 10 16 0.00 0.00
9:53 pm 21:53 Mostly Clear 63 17.2 58 14.4 84 84 WSW 3 6 29.97 1015 10 16 0.00 0.00
10:53 pm 22:53 Mostly Clear 62 16.7 58 14.4 86 86 WSW 3 6 29.97 1015 10 16 0.00 0.00
11:53 pm 23:53 Clear 61 16.1 57 13.9 87 87 Calm 29.97 1015 8 13 0.00 0.00

Powered by AerisWeather